Regional Weather Roundup
Issued by NWS Lake Charles, LA

Home | Current Version | Previous Version | Text Only | Print | Product List | Glossary On
Versions: 1 2 3 4 5 6 7 8 9 10 11 12 13 14 15 16 17 18 19 20 21 22 23 24 25 26 27
000
ASUS44 KLCH 261010
RWRLCH
REGIONAL WEATHER ROUNDUP
NATIONAL WEATHER SERVICE LAKE CHARLES LA
500 AM CDT THU APR 26 2018

Note: "fair" indicates few or no clouds below 12,000 feet with no
significant weather and/or obstructions to visibility.


ACROSS SOUTHEAST TEXAS

CITY           SKY/WX    TMP DP  RH WIND       PRES   REMARKS
BEAUMONT       MOCLDY    59  52  77 NW14G20   29.97R
BEAUMONT CITY  CLOUDY    60  51  72 NW15      29.99S
ORANGE         PTSUNNY   59  53  79 N8G17     29.99S
JASPER         FAIR      55  48  76 NW5       30.03S
$$

ACROSS CENTRAL LOUISIANA

CITY           SKY/WX    TMP DP  RH WIND       PRES   REMARKS
LEESVILLE      FAIR      54  46  74 NW13      29.97R
FULLERTON      FAIR      53  45  74 VRB5      29.95R
ALEXANDRIA INT FAIR      53  46  77 NW13G23   29.95R
ESLER FIELD    FAIR      53  47  79 NW8       29.95R
DERIDDER       CLOUDY    57  49  76 N10G17    29.99S
OAKDALE        PTSUNNY   58  48  69 NW9G16    29.97R
OPELOUSAS      CLOUDY    59  54  82 NW10G18   29.94R
$$

ACROSS SOUTHWEST AND SOUTH CENTRAL LOUISIANA

CITY           SKY/WX    TMP DP  RH WIND       PRES   REMARKS
SULPHUR        CLOUDY    61  53  73 NW13      29.97S
LAKE CHARLES   CLOUDY    61  54  77 N13       29.96R
CHENNAULT INT  CLOUDY    60  53  76 NW12      29.97R
CAMERON PHI    CLOUDY    61  55  82 N12G20    29.96R
DEQUINCY       CLOUDY    58  49  70 NW14G20   29.98R
JENNINGS       PTSUNNY   60  54  79 NW12G17   29.95R
LAFAYETTE      CLOUDY    63  59  87 NW12      29.92R
NEW IBERIA     CLOUDY    63  58  83 NW12      29.92S
ABBEVILLE      CLOUDY    62  61  97 NW13      29.93R
PATTERSON      LGT RAIN  70  66  87 W14       29.89F
SALT POINT       N/A    N/A N/A N/A VRB6      29.87F
$$

SELECTED SITES ACROSS THE REGION

CITY           SKY/WX    TMP DP  RH WIND       PRES   REMARKS
HOUSTON BUSH   MOCLDY    57  49  74 N10       30.03S
HOUSTON HOBBY  MOCLDY    59  51  75 N21       30.01S
GALVESTON      MOCLDY    63  56  78 N21       29.99S
COLLEGE STAT   CLEAR     50  48  93 NW5       30.05F
CONROE         CLEAR     51  49  92 N3        30.04S
HUNTSVILLE     CLEAR     51  47  86 NW3       30.04F
LUFKIN         CLEAR     49  47  93 W6        30.01F
SHREVEPORT     FAIR      50  49  96 W8        29.96F
MONROE         CLOUDY    55  52  89 W9        29.91F
NATCHEZ MS     CLOUDY    57  55  93 NW8       29.92R
BATON ROUGE    CLOUDY    61  58  90 NW8       29.91R
N.O. INTL ARPT CLOUDY    68  65  90 SW10      29.87S
SLIDELL        CLOUDY    68  63  84 SW5       29.86R
$$

MARINE REPORTS

STATION/POSITION TIME  SKY/WX   TEMP    WIND        PRES    VSBY
                                AIR SEA DIR/SP/G
                 (UTC)          (F)     (DEG/KT/KT) (MB)    (MI)
BUOY 30 S HIGH I NOT AVBL
SEA RIM ST PARK  1000            59     340/ 12/ 15 1015.4R
PORT ARTHUR      0948            60 69  340/  9/ 13 1015.2R
SABINE PASS N    0942            62 72  330/ 16/ 23 1016.5R
TEXAS POINT      NOT AVBL
CALCASIEU PASS   0948            61 72  360/ 17/ 22 1013.5R
LK CHARLES BEACH 0948            61 73              1014.3R
MARSH ISLAND     0900            72                   N/A
FRESH WATER LOCK 0948            61 75              1012.6R
AMERADA PASS     0948            70 65  220/  2/  8 1012.1F
$$




USA.gov is the U.S. government's official web portal to all federal, state and local government web resources and services.